AC5AN Weather Reports


Display with metric or nautical units.
time (UTC)temp
F
wind
direction
speed
MPH
gust
MPH
rain 1hr
in
rain 24hr
in
rain mn
in
humidity
%
barometer
mb
20260506221315 66 84 6.0 16.0 0.00 0.00 0.00 50 1014.8
20260506220815 66 360 9.0 13.0 0.00 0.00 0.00 48 1014.8
20260506220322 66 78 7.0 13.0 0.00 0.00 0.00 48 1014.8
20260506215824 66 52 6.0 12.0 0.00 0.00 0.00 50 1014.8
20260506215331 66 57 6.0 11.0 0.00 0.00 0.00 49 1014.8
20260506214838 66 28 5.0 14.0 0.00 0.00 0.00 48 1014.8
20260506214318 66 68 7.0 11.0 0.00 0.00 0.00 48 1014.8
20260506213817 66 65 7.0 13.0 0.00 0.00 0.00 49 1014.8
20260506213345 66 51 8.0 13.0 0.00 0.00 0.00 48 1014.8
20260506212824 66 27 6.0 15.0 0.00 0.00 0.00 50 1014.9
20260506212332 66 360 9.0 15.0 0.00 0.00 0.00 49 1015.0
20260506211835 66 355 7.0 15.0 0.00 0.00 0.00 51 1015.0
20260506211322 65 12 10.0 15.0 0.00 0.00 0.00 50 1015.0
20260506210823 65 80 9.0 15.0 0.00 0.00 0.00 50 1015.0
20260506210332 66 360 9.0 16.0 0.00 0.00 0.00 49 1015.1
20260506205816 66 84 7.0 13.0 0.00 0.00 0.00 50 1015.1
20260506205315 66 83 6.0 17.0 0.00 0.00 0.00 51 1015.1
20260506204838 65 28 10.0 17.0 0.00 0.00 0.00 50 1015.1
20260506204338 65 30 9.0 15.0 0.00 0.00 0.00 50 1015.1
20260506203844 65 27 8.0 15.0 0.00 0.00 0.00 52 1015.1
20260506203331 65 360 8.0 16.0 0.00 0.00 0.00 51 1015.0
20260506202831 65 28 8.0 18.0 0.00 0.00 0.00 52 1015.2
20260506202312 64 22 10.0 18.0 0.00 0.00 0.00 51 1015.2
20260506201839 65 360 11.0 18.0 0.00 0.00 0.00 51 1015.3
20260506201319 64 22 10.0 15.0 0.00 0.00 0.00 52 1015.3
20260506200828 64 355 8.0 16.0 0.00 0.00 0.00 52 1015.2
20260506200326 64 28 8.0 17.0 0.00 0.00 0.00 53 1015.2
20260506195832 64 360 11.0 19.0 0.00 0.00 0.00 53 1015.2
20260506195312 64 32 10.0 19.0 0.00 0.00 0.00 52 1015.3
20260506194821 64 44 9.0 17.0 0.00 0.00 0.00 54 1015.2
20260506194322 64 34 12.0 17.0 0.00 0.00 0.00 54 1015.2
20260506193849 64 360 9.0 14.0 0.00 0.00 0.00 52 1015.2
20260506193328 64 11 10.0 15.0 0.00 0.00 0.00 54 1015.2
20260506192836 63 27 10.0 15.0 0.00 0.00 0.00 53 1015.2
20260506192337 63 63 9.0 17.0 0.00 0.00 0.00 53 1015.3
20260506191824 62 360 10.0 17.0 0.00 0.00 0.00 54 1015.2
20260506191324 62 34 10.0 16.0 0.00 0.00 0.00 55 1015.2
20260506190825 62 25 7.0 16.0 0.00 0.00 0.00 56 1015.1
20260506190333 62 22 9.0 18.0 0.00 0.00 0.00 55 1015.2
20260506185841 61 40 11.0 18.0 0.00 0.00 0.00 56 1015.0
20260506185319 60 63 10.0 18.0 0.00 0.00 0.00 57 1015.1
20260506184820 60 74 12.0 19.0 0.00 0.00 0.00 57 1015.0
20260506184328 59 30 10.0 19.0 0.00 0.00 0.00 58 1015.0
20260506183829 59 360 10.0 18.0 0.00 0.00 0.00 58 1015.0
20260506183336 58 11 11.0 17.0 0.00 0.00 0.00 58 1015.2
20260506182816 58 57 11.0 17.0 0.00 0.00 0.00 58 1015.3
20260506182316 58 360 11.0 16.0 0.00 0.00 0.00 58 1015.4
20260506181824 58 360 9.0 18.0 0.00 0.00 0.00 58 1015.5
20260506181352 59 53 7.0 18.0 0.00 0.00 0.00 57 1015.7
20260506180850 59 360 8.0 15.0 0.00 0.00 0.00 59 1015.8
20260506180337 58 28 9.0 14.0 0.00 0.00 0.00 58 1015.9
20260506175818 58 65 9.0 16.0 0.00 0.00 0.00 59 1016.0
20260506175324 57 76 10.0 16.0 0.00 0.00 0.00 59 1016.3
20260506174822 57 81 10.0 16.0 0.00 0.00 0.00 59 1016.3
20260506174329 56 51 10.0 16.0 0.00 0.00 0.00 59 1016.5
20260506173829 56 75 11.0 16.0 0.00 0.00 0.00 59 1016.5
20260506173337 56 69 8.0 16.0 0.00 0.00 0.00 59 1016.7
20260506172817 56 360 11.0 16.0 0.00 0.00 0.00 59 1016.9
20260506172318 56 360 9.0 14.0 0.00 0.00 0.00 59 1016.8
20260506171814 56 43 7.0 13.0 0.00 0.00 0.00 59 1017.0
20260506171323 56 63 7.0 13.0 0.00 0.00 0.00 59 1017.1
20260506170822 55 55 7.0 14.0 0.00 0.00 0.00 60 1017.2
20260506170328 55 111 8.0 14.0 0.00 0.00 0.00 60 1017.2
20260506165827 55 88 7.0 16.0 0.00 0.00 0.00 60 1017.2
20260506165328 54 87 9.0 16.0 0.00 0.00 0.00 60 1017.3
20260506164817 54 360 7.0 13.0 0.00 0.00 0.00 61 1017.3
20260506164315 54 94 8.0 13.0 0.00 0.00 0.00 61 1017.3
20260506163816 53 64 7.0 14.0 0.00 0.00 0.00 60 1017.3
20260506163344 54 67 9.0 14.0 0.00 0.00 0.00 60 1017.3
20260506162851 54 360 10.0 15.0 0.00 0.00 0.00 59 1017.3
20260506162330 54 360 9.0 17.0 0.00 0.00 0.00 59 1017.2
20260506161838 54 360 9.0 17.0 0.00 0.00 0.00 59 1017.2
20260506161318 54 360 9.0 16.0 0.00 0.00 0.00 59 1017.0
20260506160847 54 38 10.0 18.0 0.00 0.00 0.00 60 1016.8
20260506160327 54 39 9.0 18.0 0.00 0.00 0.00 60 1017.0
20260506155824 53 82 12.0 18.0 0.00 0.00 0.00 60 1016.9
20260506155331 53 78 8.0 16.0 0.00 0.00 0.00 60 1016.9
20260506154831 53 70 8.0 17.0 0.00 0.00 0.00 60 1017.1
20260506154312 53 61 11.0 17.0 0.00 0.00 0.00 60 1017.2
20260506153819 53 77 9.0 15.0 0.00 0.00 0.00 60 1017.2
20260506153319 53 59 8.0 15.0 0.00 0.00 0.00 60 1017.2
20260506152846 53 124 9.0 15.0 0.00 0.00 0.00 60 1017.2
20260506152325 53 360 10.0 17.0 0.00 0.00 0.00 60 1017.2
20260506151832 52 360 8.0 17.0 0.00 0.00 0.00 61 1016.9
20260506151313 52 360 11.0 18.0 0.00 0.00 0.00 61 1016.8
20260506150834 51 82 11.0 18.0 0.00 0.00 0.00 61 1016.7
20260506150322 51 360 9.0 21.0 0.00 0.00 0.00 61 1016.5
20260506145822 51 360 12.0 21.0 0.00 0.00 0.00 61 1016.5
20260506145329 51 360 8.0 17.0 0.00 0.00 0.00 61 1016.3
20260506144829 51 360 11.0 17.0 0.00 0.00 0.00 61 1016.2
20260506144342 51 360 12.0 17.0 0.00 0.00 0.00 61 1016.2
20260506143822 51 360 10.0 17.0 0.00 0.00 0.00 62 1016.1
20260506143350 51 360 10.0 19.0 0.00 0.00 0.00 62 1016.0
20260506142856 51 360 11.0 19.0 0.00 0.00 0.00 62 1016.0
20260506142314 51 360 11.0 19.0 0.00 0.00 0.00 62 1015.9
20260506141816 51 360 8.0 16.0 0.00 0.00 0.00 62 1015.9
20260506141324 50 360 10.0 23.0 0.00 0.00 0.00 62 1015.8
20260506140823 50 360 13.0 23.0 0.00 0.00 0.00 62 1015.6
20260506140324 50 360 10.0 17.0 0.00 0.00 0.00 62 1015.6
20260506135833 50 360 10.0 17.0 0.00 0.00 0.00 62 1015.4
20260506135312 50 360 7.0 19.0 0.00 0.00 0.00 62 1015.4
20260506134819 50 360 10.0 19.0 0.00 0.00 0.00 62 1015.3
20260506134319 50 360 11.0 17.0 0.00 0.00 0.00 62 1015.3
20260506133819 50 360 10.0 17.0 0.00 0.00 0.00 62 1015.3
20260506133326 50 360 10.0 17.0 0.00 0.00 0.00 62 1015.2
20260506132826 50 360 10.0 17.0 0.00 0.00 0.00 62 1015.3
20260506132335 50 360 11.0 19.0 0.00 0.00 0.00 62 1015.3
20260506131815 50 360 11.0 24.0 0.00 0.00 0.00 62 1015.2
20260506131316 50 360 13.0 24.0 0.00 0.00 0.00 62 1015.1
20260506130844 50 360 9.0 19.0 0.00 0.00 0.00 62 1015.1
20260506130351 50 360 10.0 19.0 0.00 0.00 0.00 62 1015.0
20260506125830 50 360 11.0 19.0 0.00 0.00 0.00 62 1014.9
20260506125339 50 360 10.0 17.0 0.00 0.00 0.00 61 1014.9
20260506124819 50 360 10.0 15.0 0.00 0.00 0.00 61 1014.9
20260506124316 50 360 8.0 18.0 0.00 0.00 0.00 61 1014.7
20260506123816 50 360 10.0 18.0 0.00 0.00 0.00 61 1014.5
20260506123323 50 360 9.0 17.0 0.00 0.00 0.00 61 1014.4
20260506122824 50 360 7.0 18.0 0.00 0.00 0.00 61 1014.5
20260506122332 49 360 9.0 18.0 0.00 0.00 0.00 61 1014.5
20260506121830 49 360 10.0 17.0 0.00 0.00 0.00 61 1014.5
20260506121331 49 360 10.0 17.0 0.00 0.00 0.00 61 1014.1
20260506120820 49 360 10.0 16.0 0.00 0.00 0.00 61 1014.4
20260506120319 49 360 10.0 16.0 0.00 0.00 0.00 61 1014.4
20260506115820 49 360 9.0 17.0 0.00 0.00 0.00 61 1014.3
20260506115327 49 360 9.0 17.0 0.00 0.00 0.00 61 1014.3
20260506114827 49 360 7.0 17.0 0.00 0.00 0.00 61 1014.4
20260506114335 49 360 11.0 17.0 0.00 0.00 0.00 61 1014.0
20260506113816 49 360 10.0 16.0 0.00 0.00 0.00 61 1013.8
20260506113316 49 360 9.0 14.0 0.00 0.00 0.00 61 1013.7
20260506112817 49 360 7.0 16.0 0.00 0.00 0.00 61 1013.8
20260506112324 49 360 8.0 16.0 0.00 0.00 0.00 61 1013.8
20260506111824 49 360 9.0 16.0 0.00 0.00 0.00 61 1014.0
20260506111333 49 360 11.0 16.0 0.00 0.00 0.00 61 1013.9
20260506110812 49 360 9.0 15.0 0.00 0.00 0.00 61 1013.9
20260506110312 50 360 8.0 15.0 0.00 0.00 0.00 61 1014.1
20260506105819 50 360 7.0 15.0 0.00 0.00 0.00 61 1014.1
20260506105321 50 360 7.0 13.0 0.00 0.00 0.00 61 1014.0
20260506104828 50 360 6.0 14.0 0.00 0.00 0.00 62 1014.4
20260506104328 50 360 7.0 14.0 0.00 0.00 0.00 62 1014.3
20260506103828 50 360 6.0 12.0 0.00 0.00 0.00 62 1014.1
20260506103335 50 360 6.0 19.0 0.00 0.00 0.00 62 1014.0
20260506102815 50 360 10.0 19.0 0.00 0.00 0.00 61 1013.8
20260506102321 50 360 9.0 14.0 0.00 0.00 0.00 61 1013.7
20260506101822 50 360 6.0 12.0 0.00 0.00 0.00 61 1013.7
20260506101349 50 360 8.0 16.0 0.00 0.00 0.00 61 1013.8
20260506100828 50 360 11.0 16.0 0.00 0.00 0.00 61 1013.5
20260506100336 50 360 9.0 14.0 0.00 0.00 0.00 61 1013.5
20260506095814 50 360 8.0 17.0 0.00 0.00 0.00 61 1013.4
20260506095316 50 360 9.0 17.0 0.00 0.00 0.00 61 1013.4
20260506094822 50 360 8.0 14.0 0.00 0.00 0.00 61 1013.3
20260506094349 50 360 6.0 14.0 0.00 0.00 0.00 61 1013.5
20260506093828 50 360 8.0 14.0 0.00 0.00 0.00 61 1013.6
20260506093329 50 360 10.0 14.0 0.00 0.00 0.00 61 1013.6
20260506092837 50 360 7.0 10.0 0.00 0.00 0.00 60 1013.5
20260506092338 50 360 5.0 16.0 0.00 0.00 0.00 60 1013.7
20260506091845 50 360 10.0 16.0 0.00 0.00 0.00 60 1013.5
20260506091324 50 360 9.0 14.0 0.00 0.00 0.00 60 1013.4
20260506090813 50 360 7.0 13.0 0.00 0.00 0.00 60 1013.5
20260506090359 50 360 5.0 13.0 0.00 0.00 0.00 60 1013.6
20260506085838 50 360 7.0 14.0 0.00 0.00 0.00 61 1013.4
20260506085341 50 360 9.0 14.0 0.00 0.00 0.00 61 1013.4
20260506084848 50 360 5.0 12.0 0.00 0.00 0.00 61 1013.4
20260506084328 50 360 7.0 14.0 0.00 0.00 0.00 61 1013.3
20260506083829 50 360 6.0 13.0 0.00 0.00 0.00 62 1013.3
20260506083337 50 360 8.0 13.0 0.00 0.00 0.00 62 1013.2
20260506082817 49 360 7.0 11.0 0.00 0.00 0.00 63 1013.0
20260506082344 50 360 8.0 11.0 0.00 0.00 0.00 63 1012.8
20260506081823 50 360 5.0 11.0 0.00 0.00 0.00 63 1012.7
20260506081323 49 360 6.0 12.0 0.00 0.00 0.00 63 1012.4
20260506080830 49 360 6.0 13.0 0.00 0.00 0.00 64 1012.2
20260506080330 49 360 9.0 13.0 0.00 0.00 0.00 64 1012.1
20260506073316 49 360 9.0 14.0 0.00 0.00 0.00 66 1011.3
20260506072837 49 360 8.0 13.0 0.00 0.00 0.00 66 1011.6
20260506072343 49 360 6.0 13.0 0.00 0.00 0.00 66 1012.0
20260506071849 49 360 6.0 15.0 0.00 0.00 0.00 66 1012.1
20260506071328 49 360 9.0 16.0 0.00 0.00 0.00 66 1011.5
20260506070836 49 20 11.0 16.0 0.00 0.00 0.00 66 1011.4
20260506070317 49 360 9.0 15.0 0.00 0.00 0.00 67 1011.6
20260506062317 50 21 7.0 14.0 0.00 0.00 0.00 69 1012.0
20260506061819 50 36 7.0 14.0 0.00 0.00 0.00 69 1012.0
20260506061325 50 20 8.0 18.0 0.00 0.00 0.00 69 1011.8
20260506060832 50 31 7.0 18.0 0.00 0.00 0.00 69 1011.7
20260506060312 50 26 7.0 14.0 0.00 0.00 0.00 70 1011.7
20260506051314 50 63 7.0 15.0 0.00 0.00 0.00 68 1011.6
20260506050814 50 67 7.0 14.0 0.00 0.00 0.00 68 1011.7
20260506050322 50 77 7.0 14.0 0.00 0.00 0.00 68 1011.9
20260506044844 50 66 9.0 16.0 0.00 0.00 0.00 68 1011.6
20260506044323 50 70 8.0 15.0 0.00 0.00 0.00 68 1011.5
20260506043823 50 40 9.0 15.0 0.00 0.00 0.00 68 1011.6
20260506043351 50 360 8.0 15.0 0.00 0.00 0.00 68 1011.6
20260506042837 50 22 10.0 15.0 0.00 0.00 0.00 68 1011.7
20260506042318 50 66 8.0 16.0 0.00 0.00 0.00 68 1011.6
20260506041817 50 32 11.0 16.0 0.00 0.00 0.00 68 1011.3
20260506041345 50 63 10.0 16.0 0.00 0.00 0.00 68 1011.5
20260506040823 51 360 7.0 13.0 0.00 0.00 0.00 68 1011.6
20260506040330 51 28 8.0 14.0 0.00 0.00 0.00 68 1011.5
20260506035830 51 56 7.0 14.0 0.00 0.00 0.00 68 1011.7
20260506035330 51 84 5.0 12.0 0.00 0.00 0.00 68 1011.6
20260506034839 51 24 6.0 14.0 0.00 0.00 0.00 68 1011.5
20260506034318 51 28 5.0 14.0 0.00 0.00 0.00 68 1011.6
20260506033825 51 50 6.0 11.0 0.00 0.00 0.00 68 1011.5
20260506033326 51 46 7.0 12.0 0.00 0.00 0.00 68 1011.4
20260506032827 51 44 6.0 16.0 0.00 0.00 0.00 68 1011.3
20260506032334 51 52 8.0 16.0 0.00 0.00 0.00 67 1011.2
20260506031814 51 360 7.0 12.0 0.00 0.00 0.00 67 1011.2
20260506031313 51 360 8.0 17.0 0.00 0.00 0.00 67 1011.3
20260506030821 51 360 11.0 17.0 0.00 0.00 0.00 66 1011.0
20260506030328 51 360 9.0 18.0 0.00 0.00 0.00 66 1011.1
20260506025828 52 360 7.0 18.0 0.00 0.00 0.00 66 1010.9
20260506025335 52 360 8.0 15.0 0.00 0.00 0.00 66 1011.1
20260506024814 52 360 8.0 13.0 0.00 0.00 0.00 65 1011.1
20260506024342 52 360 7.0 13.0 0.00 0.00 0.00 65 1011.0
20260506023850 52 360 9.0 16.0 0.00 0.00 0.00 65 1010.9
20260506023328 52 360 9.0 16.0 0.00 0.00 0.00 65 1010.7
20260506022828 52 360 7.0 17.0 0.00 0.00 0.00 65 1010.7
20260506022335 52 360 10.0 17.0 0.00 0.00 0.00 65 1010.5
20260506021815 52 360 10.0 17.0 0.00 0.00 0.00 66 1010.4
20260506021315 52 347 8.0 16.0 0.00 0.00 0.00 66 1010.4
20260506020822 52 35 5.0 16.0 0.00 0.00 0.00 66 1010.3
20260506020321 52 35 7.0 16.0 0.00 0.00 0.00 66 1010.1
20260506015848 53 22 9.0 15.0 0.00 0.00 0.00 66 1010.0
20260506015327 53 42 7.0 14.0 0.00 0.00 0.00 66 1010.0
20260506014836 53 70 10.0 14.0 0.00 0.00 0.00 65 1009.7
20260506014314 53 69 8.0 14.0 0.00 0.00 0.00 66 1009.6
20260506013812 53 48 5.0 14.0 0.00 0.00 0.00 66 1009.7
20260506013313 53 49 7.0 15.0 0.00 0.00 0.00 66 1009.5
20260506012819 53 23 10.0 15.0 0.00 0.00 0.00 65 1009.4
20260506012320 53 37 6.0 15.0 0.00 0.00 0.00 65 1009.2